Wind_Speed
58 60 63 66 68 70 71 72 71 70 70 70 68 67 65 62 60 59 58 57 56 54 52 50 49 46 43 39 34 31 28 26 23 19 18 19 23 30 40 52 61 70 78
58 61 63 66 68 70 71 72 71 70 70 69 68 66 64 62 60 58 57 56 55 53 51 49 48 46 43 39 34 30 27 25 23 19 17 17 21 26 33 44 54 63 71
58 61 63 66 68 70 71 72 72 70 69 69 67 66 64 61 59 58 57 55 54 53 51 49 47 45 42 39 35 30 27 24 22 19 17 17 19 23 29 37 47 55 63
59 60 63 66 68 70 71 72 72 70 69 68 67 65 63 61 59 57 56 55 54 53 51 49 48 45 42 38 34 30 26 24 21 19 17 17 18 21 27 33 41 49 57
59 60 63 65 68 70 71 71 71 70 69 68 66 64 62 60 58 57 55 54 53 52 51 49 47 46 42 38 34 30 27 24 21 19 17 16 17 20 25 31 37 44 51
59 60 62 65 67 69 70 70 70 70 69 67 66 64 62 60 58 57 56 54 53 52 51 49 47 45 42 38 34 31 27 24 21 18 17 16 17 20 23 28 34 39 45
59 60 62 64 66 68 70 70 70 69 68 66 65 63 61 59 57 56 55 54 53 52 52 50 48 45 41 37 33 30 27 23 20 18 17 17 17 19 22 27 31 36 41
59 60 62 64 65 67 68 69 69 68 67 66 64 62 60 59 57 55 54 54 53 52 52 51 48 45 41 37 33 29 27 23 20 17 17 16 16 18 21 25 29 33 38
60 60 62 63 64 66 67 67 68 67 66 65 64 62 60 58 57 55 54 53 52 52 51 51 49 45 41 36 33 30 27 23 20 16 15 15 15 17 20 24 27 31 35
60 60 61 62 63 65 66 66 66 66 65 64 63 62 60 58 56 55 53 53 52 51 51 50 49 45 41 36 32 29 26 22 19 15 14 14 15 17 20 23 26 29 33
60 60 61 62 63 63 64 65 65 65 64 63 62 61 60 57 55 54 53 53 52 51 51 50 48 44 40 35 32 29 25 21 17 14 13 13 14 16 19 22 25 28 31
61 60 61 62 62 62 63 63 63 63 63 62 61 60 59 57 55 54 52 52 52 51 50 49 47 43 39 35 32 29 25 20 16 13 11 12 13 15 18 21 24 27 30
61 61 61 61 62 61 61 61 61 61 61 61 60 59 58 57 55 53 52 51 51 51 50 49 47 43 39 35 31 28 24 20 16 12 10 11 12 15 18 21 24 27 29
61 60 61 61 61 60 59 60 60 59 59 59 59 58 57 56 54 52 51 50 50 50 49 47 46 43 39 35 31 27 24 20 15 11 9 10 12 14 16 20 23 26 29
60 59 59 59 59 58 58 58 58 58 58 58 57 57 56 54 53 52 50 49 49 49 47 46 44 42 39 34 31 27 24 20 15 10 8 8 11 13 15 18 22 24 28
58 58 58 57 57 56 56 56 57 56 56 56 56 56 55 54 53 51 49 49 48 48 46 45 43 42 38 34 30 27 23 19 14 9 6 7 10 13 14 17 21 24 28
57 57 57 56 56 55 55 55 55 55 54 55 55 54 54 53 52 50 49 48 47 46 45 44 43 41 38 34 30 26 23 18 13 8 4 5 9 12 14 16 20 24 28
55 54 53 52 52 52 52 53 53 53 52 53 53 53 53 52 51 49 48 47 46 45 44 43 42 40 37 34 30 26 22 17 12 7 2 4 8 11 14 17 20 23 27
53 52 51 50 50 49 50 50 51 51 50 50 51 51 51 51 50 48 47 45 45 44 43 42 42 39 36 33 30 26 21 16 10 5 1 4 9 12 14 17 19 23 28
51 50 50 48 48 47 47 48 49 49 49 48 49 49 50 49 48 47 45 44 43 43 42 42 41 39 35 32 29 25 20 15 9 4 1 5 10 13 15 18 21 25 29
49 48 47 46 46 45 45 46 47 47 46 46 46 47 48 48 47 45 44 43 42 42 41 40 39 37 34 30 28 24 19 13 8 3 2 6 10 13 16 19 22 26 30
48 47 45 44 44 43 43 44 44 44 44 44 44 45 46 46 45 43 43 42 41 41 40 39 37 35 33 29 26 23 18 13 7 3 4 7 11 14 18 21 24 27 30
47 46 44 43 41 40 40 41 41 42 42 41 42 43 44 44 43 42 42 41 40 40 39 37 35 33 31 28 25 21 17 12 7 4 5 8 11 16 20 23 25 28 30
44 42 41 40 39 37 37 38 39 39 39 39 40 41 42 42 41 40 40 40 39 38 37 35 34 32 29 27 24 20 16 11 7 4 5 9 12 17 22 24 26 28 31
40 39 37 36 36 35 34 35 36 36 36 37 37 38 39 39 39 39 39 38 38 37 35 33 32 30 28 25 22 19 15 11 7 5 6 10 14 18 23 25 26 28 30
37 35 34 33 33 32 32 32 32 33 33 34 35 36 37 37 37 37 37 37 36 35 33 31 30 28 26 24 22 18 14 11 8 5 7 11 15 19 23 25 26 28 31
Wind_Direction
335 337 338 339 340 341 342 342 342 341 341 342 342 342 341 340 340 340 340 341 340 340 339 338 338 337 337 334 329 325 321 316 311 302 285 263 245 233 226 220 217 216 216
333 335 336 338 339 340 341 342 342 342 342 342 342 342 342 341 341 341 341 341 341 341 340 339 338 337 337 335 330 325 320 315 308 300 285 266 248 236 228 222 218 217 216
331 333 334 336 337 339 340 341 342 342 342 342 343 343 342 342 342 342 342 341 341 341 341 340 339 338 337 335 331 325 319 314 307 298 285 269 251 238 228 222 219 217 217
329 331 333 334 336 338 339 340 341 342 342 342 343 343 342 342 342 342 342 342 342 342 341 340 340 339 337 335 332 326 318 312 306 295 283 269 253 239 229 222 218 217 216
327 329 330 333 334 336 338 339 340 341 342 342 343 343 342 342 342 343 343 342 342 342 342 341 340 340 338 336 333 328 320 312 304 295 282 269 254 239 229 221 218 217 216
325 327 328 331 333 335 336 338 339 341 342 342 343 343 343 342 342 343 343 343 343 343 343 342 341 340 338 336 333 328 322 314 304 293 282 270 257 241 229 221 217 215 215
323 325 327 329 331 333 335 337 339 340 341 342 342 343 343 342 343 343 343 343 343 343 343 343 342 340 338 336 333 329 324 316 304 291 279 269 255 240 227 219 215 213 212
320 322 325 327 329 331 333 336 337 339 340 341 342 343 343 342 343 344 344 343 343 343 343 343 342 340 338 336 334 330 326 319 308 292 278 264 250 237 226 218 213 211 210
318 320 323 325 327 329 331 334 336 338 339 341 342 343 343 343 343 344 344 344 344 343 343 343 343 342 340 337 335 332 327 321 312 295 279 262 247 232 221 215 212 209 207
316 318 320 323 325 328 330 332 335 336 338 340 341 343 343 343 343 344 344 344 344 344 344 344 343 343 341 339 336 333 328 322 313 298 279 262 246 231 219 213 210 207 204
314 316 318 320 323 326 328 330 333 335 337 339 340 342 342 343 344 344 344 345 345 345 345 345 345 344 342 340 338 335 331 323 314 299 279 262 243 227 217 211 208 204 202
312 313 315 318 321 323 326 329 331 334 336 338 340 341 342 343 344 344 344 344 345 346 346 346 346 345 344 343 340 338 334 327 316 300 277 257 238 224 215 209 205 204 202
310 311 313 316 319 321 324 327 330 332 335 337 339 340 341 343 343 344 344 345 345 346 346 347 347 347 346 345 343 341 338 332 320 302 279 253 233 221 213 207 204 203 201
308 310 312 315 318 320 322 325 328 331 333 336 338 340 341 342 343 344 344 345 345 346 347 347 348 349 348 347 345 343 341 337 326 305 280 250 227 216 210 207 204 203 201
305 308 311 314 317 319 321 323 327 329 332 335 337 339 340 342 343 344 344 345 346 347 347 348 349 350 349 348 347 346 344 340 333 313 285 245 222 212 207 203 201 200 199
304 306 308 311 315 317 319 322 325 328 331 334 337 339 340 342 343 344 344 345 346 347 348 349 350 350 350 350 349 348 346 342 338 324 286 236 213 205 201 198 196 195 193
302 304 306 309 312 314 317 320 323 326 329 333 336 338 340 342 343 344 345 345 347 348 348 349 350 350 351 351 350 349 348 346 342 333 293 222 202 196 193 192 191 190 190
303 304 305 307 310 313 315 318 321 325 328 332 335 337 339 341 343 344 345 346 347 348 349 350 350 350 351 351 351 351 350 349 347 340 304 208 192 187 185 184 185 185 185
302 303 304 306 308 311 314 317 320 323 327 331 334 337 339 341 343 344 346 346 347 348 349 350 350 351 351 352 353 352 352 352 352 348 327 185 180 178 178 177 178 178 179
301 302 303 305 307 309 312 315 318 322 326 330 333 336 339 341 342 344 346 346 347 348 349 350 351 351 352 353 354 354 355 356 358 1 113 166 171 173 174 173 172 172 172
300 300 302 304 306 307 310 314 317 321 324 328 332 336 338 340 342 344 346 347 347 348 349 350 351 352 353 354 355 357 358 2 7 25 130 158 165 168 170 169 167 167 169
297 298 299 302 304 306 309 312 316 319 323 328 332 335 338 340 342 344 346 347 347 348 350 351 352 354 355 356 358 0 3 8 20 60 132 155 163 167 167 166 166 166 167
295 295 296 299 302 305 308 311 314 317 322 327 331 335 338 340 342 345 347 348 348 349 351 353 354 356 358 360 1 3 7 16 31 74 131 153 162 166 166 165 165 165 166
292 293 294 296 299 302 305 308 312 316 321 326 331 335 338 341 343 345 347 348 349 350 352 354 356 358 0 3 4 7 12 22 38 73 132 151 159 165 167 167 167 166 166
290 290 292 294 297 300 302 306 310 315 320 325 330 335 338 341 343 346 348 349 350 352 353 355 357 360 2 5 7 11 15 23 39 75 127 151 158 164 167 168 168 167 167
285 286 288 291 295 297 300 304 309 314 319 325 330 335 338 342 344 347 349 350 352 353 354 356 359 1 4 7 9 13 18 25 40 82 127 147 157 162 166 168 169 169 169
Height
5685 5674 5662 5649 5636 5621 5607 5592 5576 5560 5544 5528 5512 5496 5480 5465 5450 5436 5422 5408 5394 5381 5368 5356 5344 5332 5321 5311 5303 5295 5288 5281 5277 5275 5272 5270 5270 5273 5278 5286 5297 5309 5323
5677 5665 5653 5641 5627 5613 5599 5584 5568 5553 5537 5521 5505 5489 5474 5459 5444 5430 5416 5403 5389 5377 5364 5351 5340 5328 5318 5308 5299 5292 5285 5279 5274 5271 5269 5267 5268 5269 5273 5280 5289 5300 5313
5668 5657 5645 5632 5619 5605 5591 5576 5560 5545 5529 5514 5498 5482 5467 5452 5438 5424 5411 5398 5385 5372 5359 5347 5336 5324 5314 5304 5295 5288 5282 5276 5271 5268 5266 5264 5264 5266 5269 5275 5283 5292 5304
5659 5648 5637 5624 5611 5597 5583 5568 5553 5538 5522 5507 5491 5476 5461 5447 5433 5419 5406 5393 5380 5367 5355 5342 5331 5320 5310 5300 5292 5284 5278 5272 5268 5264 5262 5261 5261 5262 5265 5270 5277 5285 5295
5650 5639 5628 5616 5603 5589 5575 5561 5546 5531 5516 5500 5485 5470 5455 5441 5427 5414 5402 5389 5376 5363 5351 5338 5327 5315 5305 5295 5287 5280 5274 5268 5264 5261 5259 5257 5257 5258 5260 5265 5271 5279 5288
5641 5631 5619 5607 5595 5582 5568 5553 5539 5524 5509 5494 5479 5464 5450 5436 5422 5409 5396 5383 5371 5358 5346 5334 5322 5311 5301 5291 5283 5275 5269 5264 5260 5257 5254 5253 5253 5254 5256 5260 5266 5273 5282
5632 5621 5610 5598 5586 5573 5560 5546 5532 5517 5502 5488 5473 5459 5444 5430 5417 5404 5390 5378 5366 5353 5341 5329 5318 5307 5296 5287 5279 5271 5265 5259 5256 5253 5251 5249 5249 5250 5252 5256 5261 5267 5275
5622 5611 5601 5590 5578 5565 5552 5539 5525 5511 5496 5482 5468 5453 5439 5426 5412 5399 5386 5374 5361 5349 5337 5325 5313 5302 5291 5282 5274 5267 5261 5255 5251 5248 5246 5245 5245 5246 5248 5252 5256 5262 5269
5611 5602 5591 5581 5569 5557 5545 5532 5518 5504 5490 5476 5462 5448 5435 5421 5407 5395 5382 5370 5357 5345 5333 5321 5309 5298 5287 5278 5270 5263 5257 5251 5247 5244 5242 5241 5241 5242 5244 5248 5253 5259 5265
5601 5591 5582 5571 5560 5549 5537 5524 5511 5498 5484 5470 5456 5443 5430 5416 5403 5390 5378 5366 5354 5342 5330 5317 5304 5293 5283 5273 5266 5259 5253 5248 5243 5240 5239 5238 5238 5239 5241 5245 5249 5255 5261
5590 5581 5572 5562 5551 5541 5529 5517 5504 5491 5478 5465 5451 5438 5425 5412 5398 5386 5373 5361 5349 5337 5325 5313 5301 5289 5279 5270 5262 5255 5249 5244 5240 5237 5236 5235 5235 5237 5239 5242 5247 5252 5258
5579 5570 5561 5552 5542 5532 5521 5510 5498 5485 5472 5459 5445 5432 5419 5406 5394 5381 5369 5356 5344 5332 5321 5309 5297 5286 5276 5267 5259 5252 5245 5240 5237 5234 5233 5232 5233 5234 5237 5240 5244 5249 5255
5567 5559 5551 5542 5533 5523 5513 5502 5491 5479 5466 5453 5440 5427 5414 5402 5389 5377 5365 5353 5340 5329 5317 5305 5294 5283 5273 5264 5256 5249 5243 5238 5234 5231 5230 5230 5230 5232 5234 5238 5242 5246 5252
5555 5548 5540 5532 5524 5514 5505 5494 5484 5472 5460 5448 5435 5423 5410 5398 5385 5373 5362 5350 5338 5326 5314 5302 5291 5280 5270 5262 5254 5247 5241 5235 5231 5229 5227 5227 5228 5230 5233 5236 5240 5244 5249
5543 5537 5529 5522 5514 5506 5497 5487 5477 5466 5454 5443 5430 5418 5406 5394 5381 5369 5358 5346 5335 5323 5311 5300 5289 5279 5269 5260 5252 5245 5239 5234 5229 5227 5225 5225 5226 5228 5231 5234 5238 5242 5248
5531 5525 5519 5512 5505 5497 5488 5480 5470 5460 5448 5437 5425 5413 5401 5389 5377 5365 5354 5342 5331 5320 5308 5298 5287 5277 5268 5259 5251 5244 5238 5232 5228 5225 5224 5224 5225 5227 5230 5233 5237 5242 5247
5519 5514 5508 5502 5495 5488 5480 5472 5463 5453 5442 5431 5420 5408 5397 5385 5373 5361 5350 5339 5328 5317 5306 5295 5286 5276 5266 5258 5250 5243 5237 5232 5228 5225 5224 5224 5225 5227 5230 5233 5237 5242 5247
5508 5502 5497 5491 5485 5479 5472 5464 5455 5446 5436 5426 5415 5403 5392 5380 5369 5358 5347 5336 5325 5314 5304 5294 5284 5274 5265 5257 5249 5242 5236 5231 5227 5225 5224 5224 5225 5228 5231 5234 5238 5243 5248
5496 5491 5486 5481 5475 5469 5463 5456 5448 5439 5430 5420 5409 5399 5388 5376 5365 5354 5344 5333 5323 5312 5302 5292 5282 5273 5264 5256 5248 5241 5236 5231 5228 5225 5225 5225 5226 5229 5232 5235 5239 5244 5250
5485 5480 5475 5470 5465 5460 5454 5448 5440 5432 5423 5414 5404 5394 5383 5372 5362 5351 5341 5330 5320 5310 5301 5291 5281 5272 5263 5255 5248 5241 5236 5231 5228 5226 5226 5227 5228 5231 5234 5237 5242 5247 5253
5473 5469 5465 5460 5456 5451 5446 5440 5433 5426 5417 5408 5399 5389 5379 5369 5358 5348 5338 5328 5318 5309 5299 5289 5280 5271 5262 5254 5248 5241 5236 5232 5229 5228 5228 5229 5231 5233 5236 5240 5245 5250 5256
5461 5457 5454 5450 5446 5442 5437 5432 5426 5419 5411 5402 5393 5384 5375 5365 5355 5345 5335 5326 5316 5307 5297 5288 5279 5270 5262 5254 5248 5242 5237 5234 5231 5230 5230 5231 5233 5236 5240 5244 5249 5254 5260
5448 5445 5442 5439 5436 5433 5429 5424 5418 5412 5405 5397 5388 5380 5371 5361 5352 5342 5333 5323 5314 5305 5295 5286 5278 5270 5262 5255 5249 5244 5239 5236 5234 5233 5233 5234 5236 5239 5243 5248 5253 5258 5264
5435 5433 5431 5429 5426 5424 5420 5416 5411 5405 5399 5391 5384 5375 5367 5358 5349 5340 5331 5321 5312 5303 5294 5286 5278 5270 5263 5256 5251 5245 5241 5238 5236 5235 5236 5237 5239 5242 5247 5252 5257 5263 5269
5422 5421 5420 5419 5417 5415 5412 5408 5404 5399 5393 5386 5379 5371 5363 5354 5346 5337 5329 5320 5311 5302 5294 5286 5278 5271 5264 5258 5253 5248 5244 5241 5239 5238 5239 5240 5243 5246 5251 5256 5261 5267 5273
5410 5410 5409 5409 5407 5406 5404 5401 5397 5392 5387 5381 5374 5367 5359 5351 5343 5335 5327 5318 5310 5301 5294 5286 5279 5272 5266 5260 5255 5250 5247 5244 5242 5242 5242 5244 5246 5250 5254 5259 5265 5270 5277